Погода в Чернушке

Погода в Чернушке : погода сейчас, прогноз погоды и архив. Всё, что Вы хотите узнать о погоде в Чернушке!

Хотите узнать прогноз погоды в Чернушке? Тогда Вам сюда: Погода в Чернушке

Поиск расширенной информации на нашем сайте:

Другие новости

Новости СМИ2

Главная страница сайта

Новости сайта

03.07.2017

Напоминаем, что на нашем специализированном сайте Метеоцентр.Азия вы можете получить высокодетализированные автоматические прогнозы погоды по пунктам России, СНГ и мира в авиационном формате (включающие направление и скорость ветра, видимость, явления погоды, количество и форму облачности, нижнюю и верхнюю границу облачности).


Погода в Чернушке - сегодня

Время (UTC), дата Ветер
(°,м/с) 
Видим.   Явления Облачность Т
(°С)
Тd
(°С)
f(%) Тe
(°С)
Pmin
(гПа)
dP
(гПа)
Po
(мм)
O2
(г/м3)
Тmin Tmax R s Состояние
почвы
18 20.11.17 180 (Ю) 10 км  слаб. дождь  10/10 600 м 
[Ns]
+0.8 -0.3 92 -1  1022.6  -0.2  753  303           
21 20.11.17 170 (Ю) 20000 м  {дождь}  10/10 600 м 
[Sc]
+0.9 -0.3 92 -1  1022.6  753  302           
00 21.11.17 170 (Ю) 20000 м  {дождь}  10/10 600 м 
[Sc]
+1.1 -0.6 88 +2  1022.4  -0.2  753  302           
03 21.11.17 110 (В) 20000 м    8/4 600 м верхняя 
[Sc|Ci fib]
-0.9 -2.9 86 1022  -0.5  752  305  -0.9    0.4  равномерный
мокрый или
старый снег
100% 
06 21.11.17 100 (В) 20000 м    10/0 верхняя 
[Ci fib]
-0.1 -4.3 73 +1  1021  -1  752  303  -1.4         
09 21.11.17 110 (В) 20000 м    10/8 600 м верхняя 
[Sc|Ci fib]
+2.8 -5.9 53 +4  1019  -1  750  300           
12 21.11.17 110 (В) 20000 м    10/3 600 м средняя, верхняя 
[Sc|Ac trans|Ci fib]
+2.6 -7.2 48 +3  1017.5  -1.5  749  300           
15 21.11.17 160 (Ю) 20000 м    4/0 верхняя 
[Ci fib]
+0.5 -7.2 56 -1  1016.7  -0.9  749  302    +3.5       
18 21.11.17 250 (З) 20000 м    ясно 
-2.2 -7 70 -2  1016.3  -0.6  748  305           
21 21.11.17 310 (СЗ) 20000 м    ясно 
-5.1 -7 86 -5  1015.8  -0.7  748  308           
00 22.11.17 010 (С) 20000 м    ясно 
-6.2 -7.7 89 -6  1015.4  -0.4  747  309           
03 22.11.17 340 (С) 20000 м    ясно 
-7.3 -8.9 88 -7  1015.3  -0.2  747  310  -7.3      равномерный
мокрый или
старый снег
100% 
06 22.11.17 тихо ()   10 км    10/0 верхняя 
[Ci fib]
-4.7 -6.5 87 -5  1014.9  0.1  747  307  -7.4         
09 22.11.17 130 (ЮВ) 20000 м    10/10 600 м 
[Sc]
+1.4 -3.5 70 +1  1013.8  -0.7  746  300           
12 22.11.17 090 (В) 20000 м    10/0 верхняя 
[Ci fib]
+1 -4.1 69 +2  1013.3  -0.5  746  300           
15 22.11.17 060 (СВ) 20000 м    ясно 
-1.5 -4.8 78 -2  1012.4  -1  745  302    +3.1       
18 22.11.17 050 (СВ) 20000 м    6/6 600 м 
[Sc]
+0 -4.2 73 -1  1011.3  -1  745  300           
21 22.11.17 030 (СВ) 20000 м    9/9 600 м 
[Sc]
+0.5 -3.7 73 +1  1011.3  745  300           
00 23.11.17 тихо ()   20000 м    ясно 
-0.2 -4.8 71 -0  1010.9  -0.4  744  301           
03 23.11.17 320 (СЗ) 20000 м    4/0 верхняя 
[Ci fib]
-3.3 -5.5 85 -3  1010.9  -0.3  744  304  -3.3      равномерный
мокрый или
старый снег
100% 
06 23.11.17 330 (СЗ) 10 км    8/3 600 м верхняя 
[Sc|Ci fib]
-2 -4.7 82 -1  1011.6  0.8  745  303  -4         
09 23.11.17 150 (ЮВ) 20000 м    10/3 600 м средняя, верхняя 
[Sc|Ac trans|Ci fib]
+5.5 -2.9 55 +6  1011.4  0.3  745  295           
12 23.11.17 130 (ЮВ) 20000 м    10/0 верхняя 
[Ci fib]
+3.4 -5.1 54 +4  1011.8  0.3  745  297           
15 23.11.17 330 (СЗ) 20000 м    4/0 верхняя 
[Ci fib]
-1.1 -3.6 83 -1  1012.8  0.6  746  302    +5.8       
18 23.11.17 280 (З) 20000 м    9/9 600 м 
[Sc]
-2.4 -3.7 91 -2  1014.5  1.6  747  304           
Время (UTC), дата Ветер
(°,м/с) 
Видим.   Явления Облачность Т
(°С)
Тd
(°С)
f(%) Тe
(°С)
Pmin
(гПа)
dP
(гПа)
Po
(мм)
O2
(г/м3)
Тmin Tmax R s Состояние
почвы

Для получения пояснительной информации подведите курсор к названию столбца.

ПОГОДА в Чернушке - архив

Всё, что Вы хотите узнать о погоде в Чернушке - удобно и подробно!

Выберите нужную дату (начиная с 1 января 2015* года) и нажмите кнопку "Найти".
Будут отображены архивные сводки погоды по пункту Чернушка, начиная с указанной даты.


Отображать данные в формате CSV (для использования в таблицах Excel)


Внимание! Наш архив погоды предназначен исключительно для личного некоммерческого использования в познавательных целях. Если Вам необходимы официальные справки о состоянии погоды (для производственных, юридических, коммерческих и т.п. целей), обращайтесь в органы Росгидромета.

*Примечание: данная дата относится к архиву по метеостанциям СССР (Россия, СНГ, Балтия).
Архив по метеостанциям Зарубежной Европы и Азии (кроме Китая) хранится 10 дней, по другим регионам земного шара (Китай, Африка, Америка, Австралия, Океания) - 1 день.

Чернушка - район местоположения метеостанции


Название, широта, долгота, высота метеостанции:
Чернушка 56.5°ш. 56.1°д. 148 м над ур. моря [Российская Федерация]

Дополнительная информация

В oтличие oт бoльшинства пoгoдных сайтoв мы публикуем пoдрoбную метеoинфoрмацию в детальнoм прoфессиoнальнoм фoрмате.

Характеристики температуры и влажнoсти вoздуха измеряются на высoте 2 м в тени вдали oт зданий и деревьев.
Скoрoсть ветра измеряется на высoте 10 м (на урoвне рoста челoвека скoрoсть ветра ниже в 1.5-2 раза). Если метеoстанция нахoдится в гoрoде или в лесу, тo скoрoсть ветра занижена на 2-4 м/с пo сравнению с oткрытым местoм. Скoрoсть ветра над акватoриями крупных рек и oзёр, а также на вершинах хoлмoв на 2-5 м/с выше, чем в oбычных услoвиях.
Атмoсфернoе давление в разных тoчках местнoсти мoжет значительнo oтличаться oт давления на метеoстанции, в зависимoсти oт услoвий рельефа (при пoдъёме на 10 м давление пoнижается примернo на 1 мм рт.ст.).